Time,TemperatureF,DewpointF,PressureIn,WindDirection,WindDirectionDegrees,WindSpeedMPH,WindSpeedGustMPH,Humidity,HourlyPrecipIn,Conditions,Clouds,dailyrainin,SoftwareType,DateUTC
2013-01-23 00:03:00,1.0,-2.0,30.05,WNW,298,5.0,19.0,88,0.00,,,0.00,,2013-01-23 05:03:00,
2013-01-23 00:12:00,1.0,-2.0,30.05,WNW,298,5.0,19.0,88,0.00,,,0.00,,2013-01-23 05:12:00,
2013-01-23 00:23:00,1.0,-2.0,30.05,NNW,339,5.0,15.0,88,0.00,,,0.00,,2013-01-23 05:23:00,
2013-01-23 00:33:00,1.0,-1.0,30.04,WNW,286,8.0,18.0,89,0.00,,,0.00,,2013-01-23 05:33:00,
2013-01-23 00:43:00,1.0,-1.0,30.04,WNW,286,8.0,18.0,89,0.00,,,0.00,,2013-01-23 05:43:00,
2013-01-23 00:52:00,1.0,-1.0,30.04,WSW,254,4.0,16.0,89,0.00,,,0.00,,2013-01-23 05:52:00,
2013-01-23 01:03:00,1.0,-1.0,30.03,NW,305,7.0,15.0,89,0.00,,,0.00,,2013-01-23 06:03:00,
2013-01-23 01:12:00,1.0,-1.0,30.03,NW,305,7.0,15.0,89,0.00,,,0.00,,2013-01-23 06:12:00,
2013-01-23 01:23:00,1.0,-1.0,30.04,NNW,348,9.0,14.0,89,0.00,,,0.00,,2013-01-23 06:23:00,
2013-01-23 01:33:00,1.0,-1.0,30.04,West,269,3.0,18.0,89,0.00,,,0.00,,2013-01-23 06:33:00,
2013-01-23 01:43:00,1.0,-1.0,30.04,West,269,3.0,18.0,89,0.00,,,0.00,,2013-01-23 06:43:00,
2013-01-23 01:52:00,1.0,-1.0,30.04,West,275,11.0,16.0,89,0.00,,,0.00,,2013-01-23 06:52:00,
2013-01-23 02:02:00,1.0,-2.0,30.05,WNW,298,10.0,23.0,88,0.00,,,0.00,,2013-01-23 07:02:00,
2013-01-23 02:13:00,1.0,-2.0,30.05,WNW,298,10.0,23.0,88,0.00,,,0.00,,2013-01-23 07:13:00,
2013-01-23 02:23:00,1.0,-1.0,30.05,NW,306,5.0,22.0,89,0.00,,,0.00,,2013-01-23 07:23:00,
2013-01-23 02:33:00,1.0,-2.0,30.05,WNW,289,14.0,20.0,88,0.00,,,0.00,,2013-01-23 07:33:00,
2013-01-23 02:43:00,1.0,-2.0,30.05,WNW,289,14.0,20.0,88,0.00,,,0.00,,2013-01-23 07:43:00,
2013-01-23 02:52:00,1.0,-2.0,30.05,West,281,14.0,17.0,88,0.00,,,0.00,,2013-01-23 07:52:00,
2013-01-23 03:02:00,0.0,-3.0,30.06,NNW,331,10.0,18.0,88,0.00,,,0.00,,2013-01-23 08:02:00,
2013-01-23 03:13:00,0.0,-3.0,30.06,NNW,331,10.0,18.0,88,0.00,,,0.00,,2013-01-23 08:13:00,
2013-01-23 03:23:00,0.0,-3.0,30.06,NW,322,9.0,21.0,88,0.00,,,0.00,,2013-01-23 08:23:00,
2013-01-23 03:33:00,0.0,-3.0,30.06,WNW,301,9.0,16.0,88,0.00,,,0.00,,2013-01-23 08:33:00,
2013-01-23 03:43:00,0.0,-3.0,30.06,WNW,301,9.0,16.0,88,0.00,,,0.00,,2013-01-23 08:43:00,
2013-01-23 03:53:00,0.0,-3.0,30.06,WNW,294,4.0,19.0,88,0.00,,,0.00,,2013-01-23 08:53:00,
2013-01-23 04:03:00,0.0,-3.0,30.06,WNW,300,11.0,16.0,88,0.00,,,0.00,,2013-01-23 09:03:00,
2013-01-23 04:12:00,0.0,-3.0,30.06,WNW,300,11.0,16.0,88,0.00,,,0.00,,2013-01-23 09:12:00,
2013-01-23 04:22:00,0.0,-3.0,30.06,WNW,300,11.0,16.0,88,0.00,,,0.00,,2013-01-23 09:22:00,
2013-01-23 04:33:00,-1.0,-4.0,30.06,NW,315,6.0,23.0,88,0.00,,,0.00,,2013-01-23 09:33:00,
2013-01-23 04:43:00,-1.0,-4.0,30.06,NW,315,6.0,23.0,88,0.00,,,0.00,,2013-01-23 09:43:00,
2013-01-23 04:53:00,-1.0,-4.0,30.06,West,281,5.0,19.0,88,0.00,,,0.00,,2013-01-23 09:53:00,
2013-01-23 05:03:00,-1.0,-4.0,30.06,WNW,300,12.0,20.0,88,0.00,,,0.00,,2013-01-23 10:03:00,
2013-01-23 05:12:00,-1.0,-4.0,30.06,WNW,300,12.0,20.0,88,0.00,,,0.00,,2013-01-23 10:12:00,
2013-01-23 05:23:00,-1.0,-4.0,30.06,WNW,300,12.0,20.0,88,0.00,,,0.00,,2013-01-23 10:23:00,
2013-01-23 05:33:00,-1.0,-4.0,30.06,WNW,297,11.0,16.0,88,0.00,,,0.00,,2013-01-23 10:33:00,
2013-01-23 05:43:00,-1.0,-4.0,30.06,WNW,297,11.0,16.0,88,0.00,,,0.00,,2013-01-23 10:43:00,
2013-01-23 05:53:00,-1.0,-4.0,30.06,WNW,297,11.0,16.0,88,0.00,,,0.00,,2013-01-23 10:53:00,
2013-01-23 06:03:00,-1.0,-4.0,30.06,NW,318,11.0,16.0,88,0.00,,,0.00,,2013-01-23 11:03:00,
2013-01-23 06:12:00,-1.0,-4.0,30.06,NW,318,11.0,16.0,88,0.00,,,0.00,,2013-01-23 11:12:00,
2013-01-23 06:23:00,-1.0,-4.0,30.06,WNW,296,6.0,17.0,88,0.00,,,0.00,,2013-01-23 11:23:00,
2013-01-23 06:34:00,-1.0,-4.0,30.06,NW,317,6.0,19.0,88,0.00,,,0.00,,2013-01-23 11:34:00,
2013-01-23 06:43:00,-1.0,-4.0,30.06,NW,317,6.0,19.0,88,0.00,,,0.00,,2013-01-23 11:43:00,
2013-01-23 06:53:00,-1.0,-4.0,30.06,NW,314,11.0,16.0,88,0.00,,,0.00,,2013-01-23 11:53:00,
2013-01-23 07:03:00,-1.0,-4.0,30.06,NW,306,6.0,17.0,88,0.00,,,0.00,,2013-01-23 12:03:00,
2013-01-23 07:13:00,-1.0,-4.0,30.06,NW,306,6.0,17.0,88,0.00,,,0.00,,2013-01-23 12:13:00,
2013-01-23 07:23:00,0.0,-3.0,30.07,NNW,329,11.0,15.0,88,0.00,,,0.00,,2013-01-23 12:23:00,
2013-01-23 07:33:00,0.0,-3.0,30.07,NW,325,11.0,18.0,88,0.00,,,0.00,,2013-01-23 12:33:00,
2013-01-23 07:43:00,0.0,-3.0,30.07,NW,325,11.0,18.0,88,0.00,,,0.00,,2013-01-23 12:43:00,
2013-01-23 07:53:00,0.0,-3.0,30.07,NW,312,7.0,18.0,88,0.00,,,0.00,,2013-01-23 12:53:00,
2013-01-23 08:04:00,0.0,-3.0,30.07,West,279,16.0,22.0,88,0.00,,,0.00,,2013-01-23 13:04:00,
2013-01-23 08:13:00,0.0,-3.0,30.07,West,279,16.0,22.0,88,0.00,,,0.00,,2013-01-23 13:13:00,
2013-01-23 08:23:00,0.0,-3.0,30.07,WNW,298,11.0,22.0,88,0.00,,,0.00,,2013-01-23 13:23:00,
2013-01-23 08:33:00,-1.0,-4.0,30.07,WSW,238,5.0,17.0,88,0.00,,,0.00,,2013-01-23 13:33:00,
2013-01-23 08:43:00,-1.0,-4.0,30.07,WSW,238,5.0,17.0,88,0.00,,,0.00,,2013-01-23 13:43:00,
2013-01-23 08:53:00,0.0,-3.0,30.07,NW,318,12.0,16.0,88,0.00,,,0.00,,2013-01-23 13:53:00,
2013-01-23 09:03:00,0.0,-3.0,30.08,NW,315,0.0,15.0,87,0.00,,,0.00,,2013-01-23 14:03:00,
2013-01-23 09:12:00,0.0,-3.0,30.08,NW,315,0.0,15.0,87,0.00,,,0.00,,2013-01-23 14:12:00,
2013-01-23 09:23:00,0.0,-3.0,30.08,West,281,6.0,16.0,87,0.00,,,0.00,,2013-01-23 14:23:00,
2013-01-23 09:33:00,2.0,-1.0,30.10,NNW,327,4.0,18.0,86,0.00,,,0.00,,2013-01-23 14:33:00,
2013-01-23 09:43:00,2.0,-1.0,30.10,NNW,327,4.0,18.0,86,0.00,,,0.00,,2013-01-23 14:43:00,
2013-01-23 09:53:00,2.0,-1.0,30.09,WNW,297,10.0,18.0,86,0.00,,,0.00,,2013-01-23 14:53:00,
2013-01-23 10:03:00,2.0,-1.0,30.09,North,360,5.0,19.0,85,0.00,,,0.00,,2013-01-23 15:03:00,
2013-01-23 10:13:00,2.0,-1.0,30.09,North,360,5.0,19.0,85,0.00,,,0.00,,2013-01-23 15:13:00,
2013-01-23 10:23:00,3.0,-1.0,30.09,WSW,251,9.0,15.0,84,0.00,,,0.00,,2013-01-23 15:23:00,
2013-01-23 10:33:00,3.0,-1.0,30.09,WNW,296,3.0,15.0,84,0.00,,,0.00,,2013-01-23 15:33:00,
2013-01-23 10:43:00,3.0,-1.0,30.09,WNW,296,3.0,15.0,84,0.00,,,0.00,,2013-01-23 15:43:00,
2013-01-23 10:53:00,4.0,0.0,30.09,West,279,4.0,19.0,83,0.00,,,0.00,,2013-01-23 15:53:00,
2013-01-23 11:03:00,5.0,1.0,30.09,West,267,0.0,13.0,83,0.00,,,0.00,,2013-01-23 16:03:00,
2013-01-23 11:12:00,5.0,1.0,30.09,West,267,0.0,13.0,83,0.00,,,0.00,,2013-01-23 16:12:00,
2013-01-23 11:23:00,6.0,2.0,30.08,West,281,0.0,6.0,83,0.00,,,0.00,,2013-01-23 16:23:00,
2013-01-23 11:33:00,6.0,1.0,30.07,WNW,288,4.0,14.0,81,0.00,,,0.00,,2013-01-23 16:33:00,
2013-01-23 11:43:00,6.0,1.0,30.07,WNW,288,4.0,14.0,81,0.00,,,0.00,,2013-01-23 16:43:00,
2013-01-23 11:52:00,7.0,2.0,30.07,NNW,336,1.0,14.0,80,0.00,,,0.00,,2013-01-23 16:52:00,
2013-01-23 12:03:00,6.0,1.0,30.06,NNW,344,11.0,17.0,79,0.00,,,0.00,,2013-01-23 17:03:00,
2013-01-23 12:12:00,6.0,1.0,30.06,NNW,344,11.0,17.0,79,0.00,,,0.00,,2013-01-23 17:12:00,
2013-01-23 12:23:00,6.0,1.0,30.05,WNW,300,11.0,17.0,79,0.00,,,0.00,,2013-01-23 17:23:00,
2013-01-23 12:34:00,7.0,1.0,30.04,WSW,257,0.0,14.0,77,0.00,,,0.00,,2013-01-23 17:34:00,
2013-01-23 12:43:00,7.0,1.0,30.04,WSW,257,0.0,14.0,77,0.00,,,0.00,,2013-01-23 17:43:00,
2013-01-23 12:53:00,7.0,2.0,30.04,West,272,3.0,16.0,78,0.00,,,0.00,,2013-01-23 17:53:00,
2013-01-23 13:04:00,6.0,1.0,30.03,NNW,329,13.0,16.0,79,0.00,,,0.00,,2013-01-23 18:04:00,
2013-01-23 13:12:00,6.0,1.0,30.03,NNW,329,13.0,16.0,79,0.00,,,0.00,,2013-01-23 18:12:00,
2013-01-23 13:24:00,7.0,2.0,30.03,SW,224,2.0,14.0,80,0.00,,,0.00,,2013-01-23 18:24:00,
2013-01-23 13:33:00,7.0,2.0,30.03,SW,224,2.0,14.0,80,0.00,,,0.00,,2013-01-23 18:33:00,
2013-01-23 13:43:00,7.0,1.0,30.02,West,280,3.0,18.0,77,0.00,,,0.00,,2013-01-23 18:43:00,
2013-01-23 13:53:00,7.0,2.0,30.01,NNW,346,9.0,14.0,78,0.00,,,0.00,,2013-01-23 18:53:00,
2013-01-23 14:03:00,7.0,1.0,30.01,WNW,299,3.0,17.0,77,0.00,,,0.00,,2013-01-23 19:03:00,
2013-01-23 14:13:00,7.0,1.0,30.01,WNW,299,3.0,17.0,77,0.00,,,0.00,,2013-01-23 19:13:00,
2013-01-23 14:23:00,8.0,2.0,30.00,WNW,292,4.0,21.0,77,0.00,,,0.00,,2013-01-23 19:23:00,
2013-01-23 14:33:00,8.0,1.0,30.00,West,276,5.0,15.0,74,0.00,,,0.00,,2013-01-23 19:33:00,
2013-01-23 14:43:00,8.0,1.0,30.00,West,276,5.0,15.0,74,0.00,,,0.00,,2013-01-23 19:43:00,
2013-01-23 14:53:00,8.0,2.0,30.01,NW,304,10.0,14.0,75,0.00,,,0.00,,2013-01-23 19:53:00,
2013-01-23 15:03:00,8.0,1.0,30.01,WSW,257,2.0,16.0,74,0.00,,,0.00,,2013-01-23 20:03:00,
2013-01-23 15:13:00,8.0,1.0,30.01,WSW,257,2.0,16.0,74,0.00,,,0.00,,2013-01-23 20:13:00,
2013-01-23 15:23:00,8.0,2.0,30.01,NW,313,2.0,20.0,75,0.00,,,0.00,,2013-01-23 20:23:00,
2013-01-23 15:33:00,8.0,2.0,30.01,West,274,0.0,9.0,75,0.00,,,0.00,,2013-01-23 20:33:00,
2013-01-23 15:43:00,8.0,2.0,30.01,West,274,0.0,9.0,75,0.00,,,0.00,,2013-01-23 20:43:00,
2013-01-23 15:53:00,9.0,3.0,30.01,West,264,0.0,9.0,76,0.00,,,0.00,,2013-01-23 20:53:00,
2013-01-23 16:03:00,8.0,2.0,30.00,NNW,334,1.0,13.0,75,0.00,,,0.00,,2013-01-23 21:03:00,
2013-01-23 16:12:00,8.0,2.0,30.00,NNW,334,1.0,13.0,75,0.00,,,0.00,,2013-01-23 21:12:00,
2013-01-23 16:23:00,9.0,3.0,29.99,WNW,292,2.0,7.0,76,0.00,,,0.00,,2013-01-23 21:23:00,
2013-01-23 16:33:00,8.0,1.0,29.99,SSW,211,0.0,15.0,73,0.00,,,0.00,,2013-01-23 21:33:00,
2013-01-23 16:43:00,8.0,1.0,29.99,SSW,211,0.0,15.0,73,0.00,,,0.00,,2013-01-23 21:43:00,
2013-01-23 16:53:00,8.0,2.0,29.99,NW,320,5.0,14.0,75,0.00,,,0.00,,2013-01-23 21:53:00,
2013-01-23 17:03:00,9.0,3.0,29.99,WNW,298,3.0,11.0,77,0.00,,,0.00,,2013-01-23 22:03:00,
2013-01-23 17:13:00,9.0,3.0,29.99,WNW,298,3.0,11.0,77,0.00,,,0.00,,2013-01-23 22:13:00,
2013-01-23 17:23:00,9.0,3.0,29.99,WNW,290,2.0,10.0,77,0.00,,,0.00,,2013-01-23 22:23:00,
2013-01-23 17:33:00,8.0,3.0,29.99,West,273,2.0,7.0,78,0.00,,,0.00,,2013-01-23 22:33:00,
2013-01-23 17:43:00,8.0,3.0,29.99,West,273,2.0,7.0,78,0.00,,,0.00,,2013-01-23 22:43:00,
2013-01-23 17:53:00,8.0,2.0,29.98,NW,311,3.0,9.0,77,0.00,,,0.00,,2013-01-23 22:53:00,
2013-01-23 18:03:00,9.0,4.0,29.98,NNW,348,1.0,6.0,78,0.00,,,0.00,,2013-01-23 23:03:00,
2013-01-23 18:13:00,9.0,4.0,29.98,NNW,348,1.0,6.0,78,0.00,,,0.00,,2013-01-23 23:13:00,
2013-01-23 18:23:00,9.0,4.0,29.98,NNW,348,1.0,6.0,78,0.00,,,0.00,,2013-01-23 23:23:00,
2013-01-23 18:33:00,8.0,3.0,29.98,SW,235,0.0,7.0,80,0.00,,,0.00,,2013-01-23 23:33:00,
2013-01-23 18:43:00,8.0,3.0,29.98,SW,235,0.0,7.0,80,0.00,,,0.00,,2013-01-23 23:43:00,
2013-01-23 18:53:00,8.0,3.0,29.98,WSW,246,4.0,7.0,80,0.00,,,0.00,,2013-01-23 23:53:00,
2013-01-23 19:03:00,8.0,4.0,29.96,WSW,239,4.0,5.0,82,0.00,,,0.00,,2013-01-24 00:03:00,
2013-01-23 19:12:00,8.0,4.0,29.96,WSW,239,4.0,5.0,82,0.00,,,0.00,,2013-01-24 00:12:00,
2013-01-23 19:22:00,8.0,4.0,29.96,West,273,2.0,5.0,82,0.00,,,0.00,,2013-01-24 00:22:00,
2013-01-23 19:33:00,8.0,4.0,29.96,WNW,286,0.0,5.0,82,0.00,,,0.00,,2013-01-24 00:33:00,
2013-01-23 19:43:00,8.0,4.0,29.96,WNW,286,0.0,5.0,82,0.00,,,0.00,,2013-01-24 00:43:00,
2013-01-23 19:53:00,8.0,4.0,29.96,SW,228,0.0,6.0,83,0.00,,,0.00,,2013-01-24 00:53:00,
2013-01-23 20:03:00,8.0,4.0,29.96,NW,305,2.0,6.0,83,0.00,,,0.00,,2013-01-24 01:03:00,
2013-01-23 20:12:00,8.0,4.0,29.96,NW,305,2.0,6.0,83,0.00,,,0.00,,2013-01-24 01:12:00,
2013-01-23 20:23:00,8.0,4.0,29.96,WSW,242,5.0,9.0,84,0.00,,,0.00,,2013-01-24 01:23:00,
2013-01-23 20:33:00,8.0,5.0,29.96,West,273,1.0,4.0,86,0.00,,,0.00,,2013-01-24 01:33:00,
2013-01-23 20:43:00,8.0,5.0,29.96,West,273,1.0,4.0,86,0.00,,,0.00,,2013-01-24 01:43:00,
2013-01-23 20:52:00,8.0,5.0,29.96,West,273,1.0,4.0,86,0.00,,,0.00,,2013-01-24 01:52:00,
2013-01-23 21:03:00,8.0,5.0,29.95,WSW,254,3.0,7.0,87,0.00,,,0.00,,2013-01-24 02:03:00,
2013-01-23 21:12:00,8.0,5.0,29.95,WSW,254,3.0,7.0,87,0.00,,,0.00,,2013-01-24 02:12:00,
2013-01-23 21:23:00,8.0,5.0,29.95,West,264,6.0,11.0,88,0.00,,,0.00,,2013-01-24 02:23:00,
2013-01-23 21:33:00,8.0,5.0,29.94,South,191,0.0,7.0,88,0.00,,,0.00,,2013-01-24 02:33:00,
2013-01-23 21:42:00,8.0,5.0,29.94,South,191,0.0,7.0,88,0.00,,,0.00,,2013-01-24 02:42:00,
2013-01-23 21:52:00,8.0,5.0,29.94,South,191,0.0,7.0,88,0.00,,,0.00,,2013-01-24 02:52:00,
2013-01-23 22:03:00,8.0,5.0,29.94,WNW,290,4.0,5.0,88,0.00,,,0.00,,2013-01-24 03:03:00,
2013-01-23 22:12:00,8.0,5.0,29.94,WNW,290,4.0,5.0,88,0.00,,,0.00,,2013-01-24 03:12:00,
2013-01-23 22:22:00,8.0,5.0,29.94,WNW,290,4.0,5.0,88,0.00,,,0.00,,2013-01-24 03:22:00,
2013-01-23 22:33:00,8.0,5.0,29.93,WSW,240,0.0,3.0,89,0.00,,,0.00,,2013-01-24 03:33:00,
2013-01-23 22:43:00,8.0,5.0,29.93,WSW,240,0.0,3.0,89,0.00,,,0.00,,2013-01-24 03:43:00,
2013-01-23 22:53:00,8.0,5.0,29.93,NW,309,0.0,4.0,88,0.00,,,0.00,,2013-01-24 03:53:00,
2013-01-23 23:03:00,8.0,5.0,29.92,SW,236,0.0,0.0,89,0.00,,,0.00,,2013-01-24 04:03:00,
2013-01-23 23:12:00,8.0,5.0,29.92,SW,236,0.0,0.0,89,0.00,,,0.00,,2013-01-24 04:12:00,
2013-01-23 23:22:00,8.0,5.0,29.92,SW,236,0.0,0.0,89,0.00,,,0.00,,2013-01-24 04:22:00,
2013-01-23 23:33:00,8.0,5.0,29.91,SSE,156,0.0,2.0,89,0.00,,,0.00,,2013-01-24 04:33:00,
2013-01-23 23:42:00,8.0,5.0,29.91,SSE,156,0.0,2.0,89,0.00,,,0.00,,2013-01-24 04:42:00,
2013-01-23 23:53:00,8.0,5.0,29.91,SSE,156,0.0,2.0,89,0.00,,,0.00,,2013-01-24 04:53:00,